Weather in Timaru

New Zealand     44°23′54″S   171°14′54″E
В апреле 2022 года жителям России запретили посещать сайт meteo.paraplan.net по решению Генеральной прокуратуры. Аудитория сайта уменьшилась в 10 раз. Владельцы сайта не видят смысла в поддержке погодного сервера в таких условиях. Сайт будет закрыт в октябре.
temp.,
°C
wind,
m/s
gust,
m/s
humid.,
%
clouds,
%
prec.,
mm/h
press.,
hPa
HPBL,
m
30 september, fri
fri3001:00+7s7885100 12.9 1023947
04:00+6s6880100 1.1 1024775
07:00+6sw2379100 1.4 1025426
10:00+7sw126782 0.1 1027742
13:00+8ese326156 0.3 1027851
16:00+9e325934 0.0 1027871
19:00+8ne336288 0.0 1027447
22:00+6n23638 0.0 1028355
1 october, sat
sat101:00+3nnw33780 0.0 1026111
04:00+2nnw22840 0.0 1025118
07:00+2nnw33865 0.0 1024127
10:00+6nne35711 0.0 1023388
13:00+9ne56657 0.0 1020955
16:00+10ne656755 0.0 1018851
19:00+9ne56740 0.0 1018293
22:00+7nw12801 0.0 1019189
2 october, sun
sun201:00+5wnw11841 0.0 101859
04:00+4w11842 0.0 101761
07:00+4w11850 0.0 101669
10:00+7ne127891 0.0 1015295
13:00+8ne3480100 0.0 1014420
16:00+9nne4581100 0.0 1011438
19:00+9nne358396 0.0 1010407
22:00+9nne578134 0.0 1009375
3 october, mon
mon301:00+6n33880 0.0 1006123
04:00+5nnw11880 0.0 100487
07:00+6ssw3387100 0.0 1004134
10:00+9s568399 0.0 1005504
13:00+11e21737 0.0 1005570
16:00+10ese3478100 0.0 1006238
19:00+9sse8967100 0.1 1009835
22:00+9ese226597 0.0 1011529
4 october, tue
tue401:00+8nw337488 0.0 1011296
04:00+7n358151 0.0 1010266
07:00+5n45890 0.0 1009200
10:00+8nne33790 0.0 1009353
13:00+10e32767 0.0 1007482
16:00+11e447637 0.0 1004354
19:00+10ene228310 0.1 1004109
22:00+8s111386100 1.1 1006592